TimeMST,TemperatureF,Dew PointF,Humidity,Sea Level PressureIn,VisibilityMPH,Wind Direction,Wind SpeedMPH,Gust SpeedMPH,PrecipitationIn,Events,Conditions,WindDirDegrees,DateUTC
12:53 AM,46.0,26.1,46,30.22,10.0,WSW,10.4,-,N/A,,Overcast,250,2012-11-05 07:53:00
1:53 AM,43.0,25.0,49,30.22,10.0,West,12.7,-,N/A,,Mostly Cloudy,260,2012-11-05 08:53:00
2:53 AM,39.9,24.1,53,30.21,10.0,West,11.5,-,N/A,,Clear,270,2012-11-05 09:53:00
3:53 AM,37.0,23.0,57,30.22,10.0,West,11.5,-,N/A,,Clear,280,2012-11-05 10:53:00
4:53 AM,36.0,23.0,59,30.24,10.0,West,12.7,-,N/A,,Clear,280,2012-11-05 11:53:00
5:53 AM,36.0,23.0,59,30.24,10.0,West,13.8,-,N/A,,Clear,270,2012-11-05 12:53:00
6:53 AM,36.0,23.0,59,30.27,10.0,West,13.8,-,N/A,,Clear,270,2012-11-05 13:53:00
7:53 AM,41.0,25.0,53,30.27,10.0,West,12.7,-,N/A,,Clear,270,2012-11-05 14:53:00
8:53 AM,46.9,26.1,44,30.26,10.0,West,12.7,-,N/A,,Clear,260,2012-11-05 15:53:00
9:53 AM,55.0,28.9,37,30.22,10.0,WSW,8.1,-,N/A,,Clear,250,2012-11-05 16:53:00
10:53 AM,57.9,28.9,33,30.19,10.0,WSW,8.1,-,N/A,,Clear,250,2012-11-05 17:53:00
11:53 AM,60.1,30.0,32,30.14,10.0,SW,10.4,-,N/A,,Clear,230,2012-11-05 18:53:00
12:53 PM,62.1,28.9,29,30.09,10.0,West,5.8,-,N/A,,Clear,270,2012-11-05 19:53:00
1:53 PM,63.0,28.0,27,30.07,10.0,Calm,Calm,-,N/A,,Clear,0,2012-11-05 20:53:00
2:53 PM,64.0,28.0,26,30.06,10.0,Calm,Calm,-,N/A,,Clear,0,2012-11-05 21:53:00
3:53 PM,64.9,28.0,25,30.05,10.0,SSE,3.5,-,N/A,,Clear,160,2012-11-05 22:53:00
4:53 PM,60.1,28.0,30,30.06,10.0,SSE,4.6,-,N/A,,Clear,150,2012-11-05 23:53:00
5:53 PM,55.9,27.0,33,30.07,10.0,SE,5.8,-,N/A,,Clear,130,2012-11-06 00:53:00
6:53 PM,55.9,28.0,34,30.09,10.0,Calm,Calm,-,N/A,,Clear,0,2012-11-06 01:53:00
7:53 PM,54.0,27.0,35,30.07,10.0,SSW,3.5,-,N/A,,Clear,200,2012-11-06 02:53:00
8:53 PM,48.0,25.0,41,30.08,10.0,West,9.2,-,N/A,,Clear,270,2012-11-06 03:53:00
9:53 PM,46.0,25.0,44,30.08,10.0,NW,9.2,-,N/A,,Clear,320,2012-11-06 04:53:00
10:53 PM,41.0,24.1,51,30.09,10.0,WNW,8.1,-,N/A,,Clear,290,2012-11-06 05:53:00
11:53 PM,42.1,25.0,51,30.09,10.0,West,12.7,-,N/A,,Clear,270,2012-11-06 06:53:00